Flag Weather past 2 weeks in Toledo, Ohio, U.S.A.

Now
57 °F

Partly cloudy.


Feels Like: 54 °F
Forecast: 35 / 58 °F
Wind: 15 mph from Southwest

Location: Toledo Suburban Airport

Current Time: Nov 24, 2014 at 7:36:38 AM

Latest Report: Nov 24, 2014 at 6:55 AM


Visibility: 10 mi

Pressure: 29.17 "Hg

Humidity: 82%

Dew point: 52 °F

Location of ToledoLocation

Historic Weather in Toledo — Graph

°F

Toledo temperature yesterday

Maximum temperature yesterday: 59 °F (at 2:15 PM)
Minimum temperature yesterday: 45 °F (at 5:15 AM)
Average temperature yesterday: 51 °F

Past Weeks' High & Low Weather Summary

 TemperatureHumidityPressure
High64 °F (Nov 11, 11:54 AM)94% (Nov 11, 4:15 PM)30.50 "Hg (Nov 11, 4:15 PM)
Low12 °F (Nov 18, 4:35 AM)31% (Nov 10, 2:54 PM)29.10 "Hg (Nov 24, 2:34 AM)
Average35 °F69%30.02 "Hg
* Reported Nov 9 6:15 AM — Nov 24 6:34 AM, Toledo, Weather by CustomWeather, © 2014

Note: Actual official high and low records may vary slightly from our data, if they occured in-between our weather recording intervals... More about our weather records

Advertising

Toledo weather history for previous 24 hours

 ConditionsComfort  
Time TempWeatherWind HumidityBarometerVisibility
6:34 AM
Nov 24
57 °FPartly cloudy.15 mph82%29.16 "Hg10 mi
6:15 AM57 °FMostly cloudy.17 mph82%29.17 "Hg10 mi
5:55 AM55 °FOvercast.13 mph88%29.17 "Hg10 mi
5:35 AM55 °FOvercast.9 mph88%29.17 "Hg10 mi
5:15 AM55 °FDrizzle. Mostly cloudy.12 mph88%29.16 "Hg4 mi
4:54 AM57 °FOvercast.14 mph82%29.16 "Hg10 mi
4:35 AM57 °FDrizzle. Overcast.20 mph82%29.15 "Hg10 mi
4:15 AM57 °FOvercast.12 mph88%29.14 "Hg10 mi
3:54 AM57 °FMostly cloudy.14 mph88%29.12 "Hg10 mi
3:35 AM57 °FLight rain. Overcast.16 mph88%29.11 "Hg4 mi
2:55 AM57 °FLight rain. Mostly cloudy.16 mph88%29.10 "Hg10 mi
2:34 AM55 °FRain. Mostly cloudy.14 mph94%29.10 "Hg10 mi
2:15 AM55 °FLight rain. Overcast.13 mph94%29.11 "Hg10 mi
1:54 AM55 °FDrizzle. Mostly cloudy.13 mph94%29.11 "Hg10 mi
1:35 AM55 °FLight rain. Mostly cloudy.18 mph94%29.12 "Hg10 mi
1:15 AM55 °FLight rain. Overcast.13 mph88%29.14 "Hg10 mi
12:54 AM55 °FMostly cloudy.13 mph88%29.16 "Hg10 mi
12:35 AM55 °FMostly cloudy.12 mph88%29.17 "Hg10 mi
12:15 AM55 °FLight rain. Mostly cloudy.14 mph88%29.19 "Hg10 mi
11:54 PM
Nov 23
54 °FRain. Mostly cloudy.13 mph94%29.22 "Hg5 mi
11:35 PM54 °FRain. Overcast.15 mph94%29.23 "Hg5 mi
11:15 PM54 °FRain. Mostly cloudy.15 mph88%29.24 "Hg5 mi
10:55 PM54 °FRain. Mostly cloudy.10 mph88%29.27 "Hg5 mi
10:34 PM54 °FLight rain. Mostly cloudy.8 mph88%29.29 "Hg5 mi
10:15 PM52 °FRain. Mostly cloudy.8 mph94%29.32 "Hg7 mi
9:54 PM52 °FRain. Overcast.13 mph94%29.35 "Hg7 mi
9:35 PM52 °FRain. Overcast.10 mph94%29.38 "Hg7 mi
9:15 PM52 °FRain. Mostly cloudy.9 mph88%29.40 "Hg5 mi
8:54 PM52 °FLight rain. Mostly cloudy.8 mph88%29.43 "Hg7 mi
8:35 PM50 °FLight rain. Mostly cloudy.6 mph88%29.45 "Hg7 mi
8:15 PM50 °FRain. Overcast.5 mph88%29.48 "Hg5 mi
7:54 PM50 °FLight rain. Mostly cloudy.5 mph82%29.49 "Hg10 mi
7:35 PM50 °FLight rain. Overcast.5 mph82%29.51 "Hg10 mi
6:55 PM50 °FRain. Mostly cloudy.6 mph82%29.55 "Hg10 mi
6:34 PM50 °FDrizzle. Overcast.3 mph82%29.56 "Hg10 mi
6:15 PM50 °FLight rain. Overcast.3 mph82%29.57 "Hg10 mi
5:54 PM52 °FDrizzle. Mostly cloudy.3 mph77%29.60 "Hg10 mi
5:35 PM54 °FRain. Mostly cloudy.3 mph77%29.62 "Hg10 mi
5:15 PM55 °FLight rain. Mostly cloudy.3 mph72%29.63 "Hg10 mi
4:54 PM57 °FOvercast.3 mph63%29.64 "Hg10 mi
4:35 PM57 °FMostly cloudy.5 mph63%29.65 "Hg10 mi
4:15 PM57 °FMore clouds than sun.6 mph63%29.66 "Hg10 mi
3:55 PM57 °FCloudy.8 mph63%29.68 "Hg10 mi
3:34 PM59 °FOvercast.6 mph59%29.69 "Hg10 mi
3:15 PM59 °FOvercast.7 mph59%29.70 "Hg10 mi
2:54 PM59 °FScattered clouds.7 mph63%29.72 "Hg10 mi
2:35 PM59 °FSunny.7 mph63%29.73 "Hg10 mi
2:15 PM59 °FScattered clouds.9 mph63%29.75 "Hg10 mi
1:55 PM55 °FOvercast.7 mph72%29.76 "Hg10 mi
1:34 PM55 °FPartly sunny.6 mph67%29.78 "Hg10 mi
1:15 PM55 °FPartly sunny.10 mph67%29.80 "Hg10 mi
12:55 PM54 °FOvercast.5 mph72%29.82 "Hg10 mi
12:34 PM54 °FPartly sunny.8 mph72%29.84 "Hg10 mi
12:15 PM54 °FPartly sunny.7 mph72%29.86 "Hg10 mi
11:54 AM52 °FBroken clouds.8 mph77%29.87 "Hg10 mi
11:35 AM50 °FBroken clouds.7 mph82%29.88 "Hg10 mi
11:15 AM50 °FPartly sunny.6 mph76%29.90 "Hg10 mi
10:54 AM50 °FMore clouds than sun.7 mph76%29.91 "Hg10 mi
10:35 AM48 °FMore clouds than sun.10 mph82%29.93 "Hg10 mi
10:15 AM46 °FPartly sunny.8 mph87%29.93 "Hg10 mi
9:54 AM46 °FDrizzle. Broken clouds.5 mph87%29.93 "Hg10 mi
9:35 AM46 °FDrizzle. Cloudy.7 mph87%29.95 "Hg7 mi
9:15 AM46 °FDrizzle. Overcast.8 mph87%29.95 "Hg7 mi
8:55 AM46 °FRain. Mostly cloudy.7 mph87%29.95 "Hg7 mi
8:34 AM45 °FDrizzle. Overcast.8 mph93%29.95 "Hg7 mi
8:15 AM45 °FDrizzle. Overcast.6 mph93%29.95 "Hg7 mi
7:54 AM46 °FLight rain. Overcast.7 mph87%29.95 "Hg7 mi
7:35 AM46 °FLight rain. Mostly cloudy.7 mph87%29.94 "Hg7 mi
7:15 AM46 °FRain. Overcast.5 mph87%29.94 "Hg7 mi
Weather by CustomWeather, © 2014

See weather overviewHow to use our weather pages